Port Angeles, WA
on Thursday, November 8, 2012

Thursday
Previous Day Next Day
Daily Summary
 ActualAverageRecord
Temperature
Mean Temperature °F °F  
Max Temperature 48°F 50°F 62°F (1996)
Min Temperature 35°F 39°F 30°F (1966)
Degree Days
Heating Degree Days 24    
Moisture
Dew Point 36°F   
Average Humidity 78    
Maximum Humidity 93    
Minimum Humidity 54    
Precipitation
Precipitation 0.00 in in in ()
Wind
Wind Speed 6 mph   
Max Wind Speed 9 mph   
Max Gust Speed mph   
Visibility 10 miles   
Events     
Averages and records for this station are not official NWS values.
Key: T is trace of precipitation, MM is missing value
Source: NWS Daily Summary
Seasonal Weather Averages
Time(PST)TemperatureDew PointHumidity Pressure Visibility Wind DirectionWind SpeedGust SpeedPrecipitationEvents Conditions
12:36 AM 43.0°F 37.0°F 80% 29.91 in 10.0 miles WSW 6.9 mph - N/A   Mostly Cloudy
12:53 AM 42.1°F 37.0°F 82% 29.92 in 10.0 miles SW 4.6 mph - N/A   Mostly Cloudy
1:02 AM 42.1°F 37.0°F 82% 29.91 in 10.0 miles SW 3.5 mph - N/A   Mostly Cloudy
1:41 AM 42.1°F 36.0°F 79% 29.90 in 10.0 miles West 6.9 mph - N/A   Scattered Clouds
1:53 AM 41.0°F 36.0°F 82% 29.91 in 10.0 miles WSW 5.8 mph - N/A   Partly Cloudy
2:22 AM 41.0°F 36.0°F 82% 29.90 in 10.0 miles SW 5.8 mph - N/A   Mostly Cloudy
2:53 AM 37.9°F 35.1°F 89% 29.91 in 10.0 miles SW 5.8 mph - N/A   Mostly Cloudy
3:07 AM 37.9°F 35.1°F 89% 29.90 in 10.0 miles Calm Calm - N/A   Scattered Clouds
3:53 AM 37.0°F 35.1°F 93% 29.90 in 10.0 miles SW 3.5 mph - N/A   Mostly Cloudy
4:53 AM 39.0°F 36.0°F 89% 29.90 in 10.0 miles WSW 4.6 mph - N/A   Overcast
5:04 AM 39.9°F 36.0°F 86% 29.89 in 10.0 miles SW 5.8 mph - N/A   Overcast
5:45 AM 39.9°F 36.0°F 86% 29.89 in 10.0 miles SSW 4.6 mph - N/A   Overcast
5:53 AM 39.9°F 37.0°F 89% 29.90 in 10.0 miles SSW 3.5 mph - N/A   Overcast
6:36 AM 41.0°F 37.9°F 89% 29.89 in 10.0 miles Calm Calm - N/A   Overcast
6:53 AM 41.0°F 37.0°F 86% 29.89 in 10.0 miles SW 4.6 mph - N/A   Overcast
7:19 AM 41.0°F 37.0°F 86% 29.89 in 10.0 miles WSW 4.6 mph - N/A   Overcast
7:45 AM 41.0°F 37.0°F 86% 29.90 in 10.0 miles SW 4.6 mph - N/A   Overcast
7:53 AM 41.0°F 37.0°F 86% 29.91 in 10.0 miles SW 3.5 mph - N/A   Overcast
8:53 AM 46.0°F 37.0°F 71% 29.91 in 10.0 miles East 8.1 mph - N/A   Overcast
9:53 AM 46.0°F 37.9°F 73% 29.91 in 10.0 miles Variable 5.8 mph - N/A   Overcast
10:28 AM 46.0°F 37.9°F 73% 29.90 in 10.0 miles ESE 5.8 mph - N/A   Scattered Clouds
10:53 AM 46.9°F 37.9°F 71% 29.91 in 10.0 miles Variable 5.8 mph - N/A   Mostly Cloudy
11:00 AM 46.0°F 37.9°F 73% 29.90 in 10.0 miles East 4.6 mph - N/A   Overcast
11:09 AM 46.0°F 37.9°F 73% 29.90 in 10.0 miles East 6.9 mph - N/A   Overcast
11:53 AM 48.0°F 39.0°F 71% 29.90 in 10.0 miles SE 6.9 mph - N/A   Scattered Clouds
12:53 PM 48.9°F 36.0°F 61% 29.89 in 10.0 miles North - - N/A   Clear
1:53 PM 48.9°F 34.0°F 56% 29.88 in 10.0 miles SSE 5.8 mph - N/A   Clear
2:53 PM 48.9°F 33.1°F 54% 29.88 in 10.0 miles South 5.8 mph - N/A   Clear
3:53 PM 46.9°F 32.0°F 56% 29.87 in 10.0 miles SSW 4.6 mph - N/A   Clear
4:53 PM 43.0°F 34.0°F 71% 29.87 in 10.0 miles SW 6.9 mph - N/A   Clear
5:53 PM 41.0°F 33.1°F 73% 29.86 in 10.0 miles SW 9.2 mph - N/A   Clear
6:53 PM 39.9°F 33.1°F 77% 29.87 in 10.0 miles WSW 9.2 mph - N/A   Clear
7:53 PM 39.0°F 32.0°F 76% 29.87 in 10.0 miles SW 9.2 mph - N/A   Clear
8:53 PM 37.9°F 32.0°F 79% 29.87 in 10.0 miles WSW 9.2 mph - N/A   Clear
9:53 PM 35.1°F 30.9°F 85% 29.87 in 10.0 miles SW 4.6 mph - N/A   Clear
10:53 PM 37.0°F 32.0°F 82% 29.88 in 10.0 miles SW 9.2 mph - N/A   Clear
11:53 PM 35.1°F 30.9°F 85% 29.89 in 10.0 miles SW 8.1 mph - N/A   Clear
Moon Phase
Nov. 08 Nov. 13 Nov. 20 Nov. 28 Dec. 06
Sunrise:07:10 AM (PST) Moon Rise:12:46 AM (PST)11/8
Sunset:04:43 PM (PST) Moon Set:01:51 PM (PST)11/8

Copyright © 2014 The Weather Underground, Inc.